SCP
0 0 0 0 0 0 0 0 0 0 0 0 0 0 0 0 0 0 0 0 0 0 0 0 0 0 0 0 0 0 0 0 0 0 0 0 0 0 0 0 0 0 0 0
0 0 0 0 0 0 0 0 0 0 0 0 0 0 0 0 0 0 0 0 0 0 0 0 0 0 0 0 0 0 0 0 0 0 0 0 0 0 0 0 0 0 0 0
0 0 0 0 0 0 0 0 0 0 0 0 0 0 0 0 0 0 0 0 0 0 0 0 0 0 0 0 0 0 0 0 0 0 0 0 0 0 0 0 0 0 0 0
0 0 0 0 0 0 0 0 0 0 0 0 0 0 0 0 0 0 0 0 0 0 0 0 0 0 0 0 0 0 0 0 0 0 0 0 0 0 0 0 0 0 0 0
0 0 0 0 0 0 0 0 0 0 0 0 0 0 0 -0 0 0 0 0 0 0 0 0 0 0 0 0 0 0 0 0 0 0 0 0 0 0 0 0 0 0 0 0
0 0 0 0 0 0 0 0 0 0 0 0 0 0 -0 -0 0 0 0 0 0 0 0 0 0 0 0 0 0 0 0 0 0 0 0 0 0 0 0 0 0 0 0 0
0 0 0 0 0 0 0 0 0 0 0 0 0 -0 -0 -0 0 0 0 0 0 0 0 0 0 0 0 0 0 0 0 0 0 0 0 0 0 0 0 0 0 0 0 0
0 0 0 0 0 0 0 0 0 0 -0 0 0 -0 -0 -0 -0 -0 0 0 0 0 0 0 0 0 0 0 0 0 0 0 0 0 0 0 0 0 0 0 0 0 0 0
0 0 0 0 0 0 0 0 0 0 -0 -0 0 -0 -0 -0 -0 0 0 -0 0 0 0 0 0 0 0 0 0 0 0 0 0 0 0 0 0 0 0 0 0 0 0 0
0 0 0 0 -0 0 0 0 0 0 -0 0 0 -0 -0 -0 0 -0 0 0 0 0 0 0 0 0 0 0 0 0 0 0 0 0 0 0 0 0 0 0 0 0 0 0
0 0 0 0 0 0 0 0 0 0 0 0 0 0 -0 -0 0 0 0 -0 0 0 0 0 0 0 0 0 0 0 0 0 0 0 0 0 0 0 0 0 0 0 0 0
0 0 0 0 0 0 0 0 0 0 0 0 0 0 0 0 0 0 0 0 0 0 0 0 0 0 0 0 0 0 0 0 0 0 0 0 0 0 0 0 0 0 0 0
-0 -0 -0 -0 -0 0 0 0 0 0 0 0 0 0 0 0 0 0 -0 0 0 0 0 0 0 0 0 0 0 0 0 0 0 0 0 0 0 0 0 0 0 0 0 0
0 -0 -0 -0 -0 0 0 0 0 0 0 0 0 0 0 0 0 0 0 0 0 0 0 0 0 0 0 0 0 0 0 0 0 0 0 0 0 0 0 0 0 0 0 0
-0 -0 -0 -0 0 -0 0 0 0 0 0 0 0 0 0 0 0 0 0 0 0 0 0 0 0 0 0 0 0 0 0 0 0 0 0 0 0 0 0 0 0 0 0 0
0 0 -0 0 0 0 0 0 0 0 0 0 0 0 0 0 0 0 0 0 0 0 0 0 0 0 0 0 0 0 0 0 0 0 0 0 0 0 0 0 0 0 0 0
0 0 0 0 0 0 0 0 -0 -0 -0 0 0 -0 0 0 0 0 0 0 0 0 0 0 0 0 0 0 0 0 0 0 0 0 0 0 0 0 0 0 0 0 0 0
0 0 0 0 0 0 0 -0 -0 -0 -0 -0 -0 -0 -0 -0 0 0 0 0 0 0 0 0 0 0 0 0 0 0 0 0 0 0 0 0 0 0 0 0 0 0 0 0
0 0 0 0 0 0 -0 -0 -0 -0 -0 -0 0 0 0 0 -0 0 0 0 0 0 0 0 0 0 0 0 0 0 0 0 0 0 0 0 0 0 0 0 0 0 0 0
0 0 0 0 0 0 -0 -0 -0 -0 -0 -0 0 -0 0 0 0 -0 -0 -0 0 0 0 0 0 0 0 0 0 0 0 0 0 0 0 0 0 0 0 0 0 0 0 0
0 0 0 0 -0 -0 -0 -0 -0 0 0 0 0 0 0 0 0 0 0 0 -0 -0 -0 -0 0 0 0 0 0 0 0 0 0 0 0 0 0 0 0 0 0 0 0 0
0 0 0 0 -0 -0 0 0 -0 0 0 -0 0 0 -0 0 -0 0 -0 -0 -0 -0 -0 0 0 0 0 0 0 0 0 0 0 0 0 0 0 0 0 0 0 0 0 0
0 0 0 0 -0 -0 0 0 0 0 0 0 0 0 0 0 0 -0 -0 0 -0 -0 -0 0 -0 -0 -0 0 0 0 0 0 0 0 0 0 0 0 0 0 0 0 0 0
0 0 0 0 0 0 0 0 0 0 0 0 0 0 0 0 0 0 0 -0 -0 -0 0 -0 -0 -0 0 0 0 0 0 0 0 0 0 0 0 0 0 0 0 0 0 0
0 0 0 0 0 -0 -0 0 0 0 0 0 0 0 0 0 0 0 0 0 -0 0 0 0 0 0 0 0 0 0 0 0 0 0 0 0 0 0 0 0 0 0 0 0
0 0 0 0 -0 -0 -0 0 0 0 0 0 0 0 0 0 0 0 0 0 0 0 0 0 0 0 0 0 0 0 0 0 0 0 0 0 0 0 0 0 0 0 0 0
0 0 0 0 0 0 -0 0 0 0 0 0 0 0 0 0 0 0 0 0 0 0 0 0 0 0 0 0 0 0 0 0 0 0 0 0 0 0 0 0 0 0 0 0
Wind_Speed_500mb
8 8 4 17 26 18 18 26 23 48 44 46 47 46 51 60 61 67 74 80 73 62 62 53 54 44 40 34 35 33 35 31 30 26 26 35 45 51 57 53 49 45 42 47
8 5 14 29 31 27 29 36 40 48 44 45 59 59 52 49 60 67 74 82 79 68 57 58 62 53 27 33 35 32 30 29 25 23 25 32 38 42 42 39 41 42 43 45
12 4 9 19 20 18 15 27 29 32 38 41 40 31 39 47 64 78 74 70 68 65 55 63 66 56 15 39 35 32 26 26 24 21 23 27 32 35 35 39 42 41 39 42
6 8 4 16 3 12 24 29 39 27 32 41 48 52 48 57 71 65 67 55 38 33 28 32 43 41 29 42 41 31 27 28 28 26 28 31 34 35 33 36 39 40 43 41
5 7 14 26 2 1 1 25 23 14 19 28 28 40 36 49 50 51 29 24 22 22 28 26 37 56 39 39 45 36 30 26 24 26 29 34 39 39 41 45 46 45 43 41
6 7 11 11 6 9 6 15 4 17 18 25 28 15 14 56 74 49 38 26 34 27 14 24 41 39 35 35 40 41 36 24 23 25 24 33 40 42 45 47 46 43 42 37
20 13 11 18 14 7 5 11 14 25 29 30 8 16 52 47 18 12 26 24 27 25 31 31 25 26 35 40 38 36 32 26 26 22 31 41 43 46 50 49 48 47 41 39
1 6 17 11 16 7 17 22 25 19 27 28 34 42 40 36 30 25 27 27 39 37 21 13 11 11 15 23 29 31 26 27 33 37 38 46 49 53 53 53 52 46 43 36
9 7 16 45 25 63 44 29 23 26 24 24 23 27 34 36 37 25 21 39 35 22 16 13 11 12 14 17 19 21 23 27 32 38 43 46 52 57 56 54 53 48 43 40
4 10 24 40 42 40 43 43 32 23 28 24 23 10 20 28 17 14 16 35 34 26 17 11 9 9 13 13 17 22 28 29 36 36 38 44 50 55 58 56 52 49 46 41
20 31 30 41 36 38 40 42 53 44 44 33 19 14 7 17 8 23 37 36 40 26 18 13 9 6 8 11 15 20 26 27 32 32 35 41 47 53 55 50 48 47 44 41
14 30 21 35 38 38 27 19 19 24 25 24 29 31 23 23 8 23 30 43 48 31 24 18 12 9 9 9 11 16 17 25 28 32 38 43 48 51 45 41 41 38 33 31
26 44 52 68 68 34 28 27 28 29 26 26 26 28 28 29 32 29 33 43 53 45 32 24 17 13 12 8 7 12 15 20 28 32 40 42 46 46 44 41 35 36 33 29
60 57 36 20 22 28 30 40 40 42 45 40 38 39 30 23 30 52 42 45 56 44 32 23 20 14 11 11 10 13 19 25 26 31 37 39 41 42 42 41 38 35 30 34
34 31 35 42 42 41 37 32 33 32 27 27 28 27 36 41 37 32 55 48 48 43 35 31 25 21 15 13 16 18 27 30 27 29 32 36 36 39 40 39 35 32 34 36
24 35 42 28 24 23 25 26 26 28 29 31 32 27 24 17 29 44 38 61 60 52 38 29 28 25 18 15 18 26 34 33 27 28 32 37 37 38 38 37 36 37 39 40
37 41 37 42 36 28 29 32 39 44 37 31 32 39 37 23 20 9 31 43 51 35 34 35 34 30 23 20 22 28 35 34 30 30 31 35 35 35 34 34 35 39 41 39
29 35 34 28 33 37 38 34 30 29 30 36 40 39 34 27 21 25 32 27 44 45 46 44 40 32 26 27 32 34 33 37 32 32 31 33 33 32 31 30 30 33 35 39
27 31 33 31 29 33 34 31 31 36 36 34 33 30 27 24 19 20 28 40 48 47 48 41 34 28 29 36 39 39 35 39 34 32 31 30 31 30 28 26 25 23 22 27
31 29 29 30 31 30 30 31 30 36 32 30 29 29 25 20 12 9 16 23 31 37 32 31 32 30 36 38 41 38 35 38 35 33 32 31 29 27 26 25 23 22 20 21
32 31 30 32 33 28 26 26 30 35 30 27 28 28 24 22 21 18 16 20 27 29 28 28 31 35 37 39 38 36 37 38 38 35 32 28 25 24 24 24 23 23 24 24
29 29 31 31 29 29 24 26 30 31 26 22 21 20 22 24 22 19 15 9 15 24 26 29 32 33 35 37 38 37 36 36 34 31 30 28 25 23 21 22 26 30 33 33
28 28 27 25 26 27 22 23 30 30 23 15 9 12 16 18 18 15 14 11 13 18 22 27 31 32 35 38 37 34 33 33 33 30 27 25 24 24 24 28 28 26 27 32
25 26 27 24 23 25 25 23 26 25 23 13 5 11 11 16 18 14 11 12 16 21 24 28 30 32 35 37 37 37 32 29 27 24 22 23 23 24 25 25 28 29 27 26
24 24 26 26 22 26 29 19 17 20 18 10 4 5 10 11 10 10 13 16 23 27 30 30 31 31 34 38 35 29 29 26 25 21 22 23 24 27 26 25 23 22 22 21
25 24 24 25 29 26 22 16 14 14 15 14 7 2 3 4 6 15 17 23 28 29 31 32 31 29 26 34 35 26 26 27 26 24 24 26 27 24 23 22 21 20 20 21
24 22 21 23 22 23 18 15 11 11 11 13 8 1 2 6 12 15 21 29 27 27 27 28 28 26 24 24 33 28 25 26 27 25 24 23 22 20 18 18 18 18 20 17
Wind_Direction_500mb
266 75 356 280 270 265 249 252 255 275 274 277 284 290 292 292 293 294 287 280 266 251 261 247 254 232 239 252 232 230 233 223 218 218 215 216 216 207 199 196 202 208 219 216
263 241 254 270 272 267 264 264 258 263 273 270 276 277 275 284 295 293 285 274 266 258 252 242 248 233 227 255 229 216 219 218 209 207 207 209 207 203 204 210 219 221 215 211
278 96 347 296 255 240 231 256 255 265 264 278 282 269 271 288 297 288 276 288 266 261 249 245 238 207 200 248 235 219 207 193 193 188 201 214 214 210 216 218 217 215 212 211
256 88 323 241 352 240 256 264 269 281 279 282 282 276 283 301 297 282 282 263 261 243 236 231 211 213 192 231 229 217 211 196 188 189 205 216 218 220 223 229 222 217 215 211
191 190 290 297 280 248 303 283 302 281 308 318 317 304 303 302 293 275 251 219 209 201 196 188 198 203 212 210 215 218 219 212 206 202 212 217 224 224 221 217 214 214 216 213
154 212 235 236 207 249 212 270 30 340 317 322 321 314 297 317 312 264 243 208 174 175 170 177 222 218 210 215 223 225 224 225 218 213 224 228 227 226 223 220 217 212 205 204
229 230 254 260 257 304 85 248 317 328 312 309 281 276 300 313 301 258 233 194 173 180 162 175 184 199 213 223 232 241 235 232 240 255 243 232 228 227 220 213 212 210 203 196
85 178 246 29 332 203 231 257 289 290 307 296 312 317 318 312 274 269 305 238 190 176 174 188 190 199 215 227 236 250 260 251 245 243 240 233 230 223 212 205 208 201 195 195
184 231 290 306 265 283 271 271 274 262 280 319 335 347 325 321 282 276 244 216 185 186 174 157 158 182 197 201 227 238 245 250 251 246 241 234 225 217 205 205 205 201 199 199
14 251 242 255 283 294 290 261 268 272 274 299 308 19 331 342 329 197 207 214 199 188 180 181 182 203 224 226 240 240 236 240 241 239 231 224 221 218 211 204 205 205 204 204
259 274 267 265 278 293 306 278 267 272 274 280 287 303 277 336 308 289 249 232 194 192 197 198 200 207 236 246 239 220 223 230 233 224 221 215 218 217 213 212 216 216 215 210
247 254 260 273 280 293 289 317 312 306 295 282 295 299 305 293 216 294 294 225 202 197 203 203 213 231 248 245 234 222 218 218 223 221 208 208 208 203 211 219 219 223 229 224
255 274 280 283 289 260 274 286 291 290 293 306 293 284 291 260 256 207 244 235 210 211 202 207 213 230 233 233 233 233 224 211 214 211 207 204 205 204 203 204 214 220 223 221
276 281 280 258 268 277 287 296 295 288 288 291 285 278 280 290 256 234 234 221 224 217 211 219 226 237 245 240 230 216 216 210 208 206 205 204 206 208 210 211 210 212 207 209
283 277 293 292 275 280 291 296 293 291 296 297 298 307 277 269 262 252 232 219 218 218 216 219 230 241 239 225 230 218 213 209 199 204 204 208 210 213 216 220 225 225 212 202
289 297 303 296 293 296 305 294 290 287 297 303 302 305 319 289 269 253 245 230 216 211 213 228 232 239 239 233 227 227 214 211 204 202 202 208 212 214 217 220 223 221 217 219
290 295 308 307 310 300 293 288 288 290 285 283 285 292 296 305 278 303 234 237 212 219 242 233 232 235 241 226 223 234 215 206 205 207 206 210 212 215 220 222 222 221 224 226
299 295 294 292 305 309 307 299 292 289 289 284 283 282 281 288 276 254 268 254 233 221 237 229 224 224 228 221 215 225 221 206 206 206 208 209 212 215 218 220 221 223 231 231
300 301 301 302 310 307 303 298 297 296 294 293 290 281 275 280 268 248 241 236 238 236 228 219 217 222 224 211 214 218 214 204 204 205 208 208 212 217 218 219 224 228 222 218
320 326 323 317 309 307 298 295 302 306 303 296 287 277 264 258 253 239 238 238 238 233 218 217 217 213 208 212 210 210 206 203 204 206 207 210 215 221 222 221 221 223 223 220
325 323 321 318 317 315 312 308 312 315 309 299 285 272 249 235 238 244 251 256 235 230 234 222 211 209 205 200 199 199 199 199 205 207 206 204 206 211 216 215 215 222 235 242
329 327 323 320 320 319 321 318 328 324 319 314 292 256 229 233 243 254 262 247 220 211 209 205 203 200 191 187 186 189 192 197 201 202 197 194 193 197 203 214 228 236 237 244
333 336 331 325 324 321 324 322 332 338 329 328 300 221 227 236 246 250 251 215 183 185 184 183 181 178 178 180 180 184 186 186 187 191 199 203 212 217 224 225 229 243 252 248
333 336 332 328 328 332 318 310 316 331 337 329 283 227 232 230 236 234 209 182 177 175 168 166 167 172 179 180 174 169 170 175 182 188 202 217 220 225 228 241 245 239 241 245
340 337 337 331 330 326 330 319 328 332 340 340 334 228 223 227 226 208 179 175 166 162 161 163 165 168 175 180 174 178 182 188 193 204 219 222 225 230 233 233 238 242 237 240
343 338 337 328 334 332 340 330 321 331 337 340 333 308 231 210 187 172 171 167 160 158 161 161 164 165 168 184 188 186 191 199 209 216 222 225 226 231 233 232 237 234 226 224
349 336 336 335 337 343 334 335 327 326 328 329 320 331 166 172 168 170 169 167 164 165 170 170 171 175 177 174 187 201 205 210 219 228 229 225 221 224 223 229 230 219 225 241
Wind_Speed_850mb
8 8 4 17 26 18 18 26 23 48 44 46 47 46 51 60 61 67 74 80 73 62 62 53 54 44 40 34 35 33 35 31 30 26 26 35 45 51 57 53 49 45 42 47
8 5 14 29 31 27 29 36 40 48 44 45 59 59 52 49 60 67 74 82 79 68 57 58 62 53 27 33 35 32 30 29 25 23 25 32 38 42 42 39 41 42 43 45
12 4 9 19 20 18 15 27 29 32 38 41 40 31 39 47 64 78 74 70 68 65 55 63 66 56 15 39 35 32 26 26 24 21 23 27 32 35 35 39 42 41 39 42
6 8 4 16 3 12 24 29 39 27 32 41 48 52 48 57 71 65 67 55 38 33 28 32 43 41 29 42 41 31 27 28 28 26 28 31 34 35 33 36 39 40 43 41
5 7 14 26 2 1 1 25 23 14 19 28 28 40 36 49 50 51 29 24 22 22 28 26 37 56 39 39 45 36 30 26 24 26 29 34 39 39 41 45 46 45 43 41
6 7 11 11 6 9 6 15 4 17 18 25 28 15 14 56 74 49 38 26 34 27 14 24 41 39 35 35 40 41 36 24 23 25 24 33 40 42 45 47 46 43 42 37
20 13 11 18 14 7 5 11 14 25 29 30 8 16 52 47 18 12 26 24 27 25 31 31 25 26 35 40 38 36 32 26 26 22 31 41 43 46 50 49 48 47 41 39
1 6 17 11 16 7 17 22 25 19 27 28 34 42 40 36 30 25 27 27 39 37 21 13 11 11 15 23 29 31 26 27 33 37 38 46 49 53 53 53 52 46 43 36
9 7 16 45 25 63 44 29 23 26 24 24 23 27 34 36 37 25 21 39 35 22 16 13 11 12 14 17 19 21 23 27 32 38 43 46 52 57 56 54 53 48 43 40
4 10 24 40 42 40 43 43 32 23 28 24 23 10 20 28 17 14 16 35 34 26 17 11 9 9 13 13 17 22 28 29 36 36 38 44 50 55 58 56 52 49 46 41
20 31 30 41 36 38 40 42 53 44 44 33 19 14 7 17 8 23 37 36 40 26 18 13 9 6 8 11 15 20 26 27 32 32 35 41 47 53 55 50 48 47 44 41
14 30 21 35 38 38 27 19 19 24 25 24 29 31 23 23 8 23 30 43 48 31 24 18 12 9 9 9 11 16 17 25 28 32 38 43 48 51 45 41 41 38 33 31
26 44 52 68 68 34 28 27 28 29 26 26 26 28 28 29 32 29 33 43 53 45 32 24 17 13 12 8 7 12 15 20 28 32 40 42 46 46 44 41 35 36 33 29
60 57 36 20 22 28 30 40 40 42 45 40 38 39 30 23 30 52 42 45 56 44 32 23 20 14 11 11 10 13 19 25 26 31 37 39 41 42 42 41 38 35 30 34
34 31 35 42 42 41 37 32 33 32 27 27 28 27 36 41 37 32 55 48 48 43 35 31 25 21 15 13 16 18 27 30 27 29 32 36 36 39 40 39 35 32 34 36
24 35 42 28 24 23 25 26 26 28 29 31 32 27 24 17 29 44 38 61 60 52 38 29 28 25 18 15 18 26 34 33 27 28 32 37 37 38 38 37 36 37 39 40
37 41 37 42 36 28 29 32 39 44 37 31 32 39 37 23 20 9 31 43 51 35 34 35 34 30 23 20 22 28 35 34 30 30 31 35 35 35 34 34 35 39 41 39
29 35 34 28 33 37 38 34 30 29 30 36 40 39 34 27 21 25 32 27 44 45 46 44 40 32 26 27 32 34 33 37 32 32 31 33 33 32 31 30 30 33 35 39
27 31 33 31 29 33 34 31 31 36 36 34 33 30 27 24 19 20 28 40 48 47 48 41 34 28 29 36 39 39 35 39 34 32 31 30 31 30 28 26 25 23 22 27
31 29 29 30 31 30 30 31 30 36 32 30 29 29 25 20 12 9 16 23 31 37 32 31 32 30 36 38 41 38 35 38 35 33 32 31 29 27 26 25 23 22 20 21
32 31 30 32 33 28 26 26 30 35 30 27 28 28 24 22 21 18 16 20 27 29 28 28 31 35 37 39 38 36 37 38 38 35 32 28 25 24 24 24 23 23 24 24
29 29 31 31 29 29 24 26 30 31 26 22 21 20 22 24 22 19 15 9 15 24 26 29 32 33 35 37 38 37 36 36 34 31 30 28 25 23 21 22 26 30 33 33
28 28 27 25 26 27 22 23 30 30 23 15 9 12 16 18 18 15 14 11 13 18 22 27 31 32 35 38 37 34 33 33 33 30 27 25 24 24 24 28 28 26 27 32
25 26 27 24 23 25 25 23 26 25 23 13 5 11 11 16 18 14 11 12 16 21 24 28 30 32 35 37 37 37 32 29 27 24 22 23 23 24 25 25 28 29 27 26
24 24 26 26 22 26 29 19 17 20 18 10 4 5 10 11 10 10 13 16 23 27 30 30 31 31 34 38 35 29 29 26 25 21 22 23 24 27 26 25 23 22 22 21
25 24 24 25 29 26 22 16 14 14 15 14 7 2 3 4 6 15 17 23 28 29 31 32 31 29 26 34 35 26 26 27 26 24 24 26 27 24 23 22 21 20 20 21
24 22 21 23 22 23 18 15 11 11 11 13 8 1 2 6 12 15 21 29 27 27 27 28 28 26 24 24 33 28 25 26 27 25 24 23 22 20 18 18 18 18 20 17
Wind_Direction_850mb
266 75 356 280 270 265 249 252 255 275 274 277 284 290 292 292 293 294 287 280 266 251 261 247 254 232 239 252 232 230 233 223 218 218 215 216 216 207 199 196 202 208 219 216
263 241 254 270 272 267 264 264 258 263 273 270 276 277 275 284 295 293 285 274 266 258 252 242 248 233 227 255 229 216 219 218 209 207 207 209 207 203 204 210 219 221 215 211
278 96 347 296 255 240 231 256 255 265 264 278 282 269 271 288 297 288 276 288 266 261 249 245 238 207 200 248 235 219 207 193 193 188 201 214 214 210 216 218 217 215 212 211
256 88 323 241 352 240 256 264 269 281 279 282 282 276 283 301 297 282 282 263 261 243 236 231 211 213 192 231 229 217 211 196 188 189 205 216 218 220 223 229 222 217 215 211
191 190 290 297 280 248 303 283 302 281 308 318 317 304 303 302 293 275 251 219 209 201 196 188 198 203 212 210 215 218 219 212 206 202 212 217 224 224 221 217 214 214 216 213
154 212 235 236 207 249 212 270 30 340 317 322 321 314 297 317 312 264 243 208 174 175 170 177 222 218 210 215 223 225 224 225 218 213 224 228 227 226 223 220 217 212 205 204
229 230 254 260 257 304 85 248 317 328 312 309 281 276 300 313 301 258 233 194 173 180 162 175 184 199 213 223 232 241 235 232 240 255 243 232 228 227 220 213 212 210 203 196
85 178 246 29 332 203 231 257 289 290 307 296 312 317 318 312 274 269 305 238 190 176 174 188 190 199 215 227 236 250 260 251 245 243 240 233 230 223 212 205 208 201 195 195
184 231 290 306 265 283 271 271 274 262 280 319 335 347 325 321 282 276 244 216 185 186 174 157 158 182 197 201 227 238 245 250 251 246 241 234 225 217 205 205 205 201 199 199
14 251 242 255 283 294 290 261 268 272 274 299 308 19 331 342 329 197 207 214 199 188 180 181 182 203 224 226 240 240 236 240 241 239 231 224 221 218 211 204 205 205 204 204
259 274 267 265 278 293 306 278 267 272 274 280 287 303 277 336 308 289 249 232 194 192 197 198 200 207 236 246 239 220 223 230 233 224 221 215 218 217 213 212 216 216 215 210
247 254 260 273 280 293 289 317 312 306 295 282 295 299 305 293 216 294 294 225 202 197 203 203 213 231 248 245 234 222 218 218 223 221 208 208 208 203 211 219 219 223 229 224
255 274 280 283 289 260 274 286 291 290 293 306 293 284 291 260 256 207 244 235 210 211 202 207 213 230 233 233 233 233 224 211 214 211 207 204 205 204 203 204 214 220 223 221
276 281 280 258 268 277 287 296 295 288 288 291 285 278 280 290 256 234 234 221 224 217 211 219 226 237 245 240 230 216 216 210 208 206 205 204 206 208 210 211 210 212 207 209
283 277 293 292 275 280 291 296 293 291 296 297 298 307 277 269 262 252 232 219 218 218 216 219 230 241 239 225 230 218 213 209 199 204 204 208 210 213 216 220 225 225 212 202
289 297 303 296 293 296 305 294 290 287 297 303 302 305 319 289 269 253 245 230 216 211 213 228 232 239 239 233 227 227 214 211 204 202 202 208 212 214 217 220 223 221 217 219
290 295 308 307 310 300 293 288 288 290 285 283 285 292 296 305 278 303 234 237 212 219 242 233 232 235 241 226 223 234 215 206 205 207 206 210 212 215 220 222 222 221 224 226
299 295 294 292 305 309 307 299 292 289 289 284 283 282 281 288 276 254 268 254 233 221 237 229 224 224 228 221 215 225 221 206 206 206 208 209 212 215 218 220 221 223 231 231
300 301 301 302 310 307 303 298 297 296 294 293 290 281 275 280 268 248 241 236 238 236 228 219 217 222 224 211 214 218 214 204 204 205 208 208 212 217 218 219 224 228 222 218
320 326 323 317 309 307 298 295 302 306 303 296 287 277 264 258 253 239 238 238 238 233 218 217 217 213 208 212 210 210 206 203 204 206 207 210 215 221 222 221 221 223 223 220
325 323 321 318 317 315 312 308 312 315 309 299 285 272 249 235 238 244 251 256 235 230 234 222 211 209 205 200 199 199 199 199 205 207 206 204 206 211 216 215 215 222 235 242
329 327 323 320 320 319 321 318 328 324 319 314 292 256 229 233 243 254 262 247 220 211 209 205 203 200 191 187 186 189 192 197 201 202 197 194 193 197 203 214 228 236 237 244
333 336 331 325 324 321 324 322 332 338 329 328 300 221 227 236 246 250 251 215 183 185 184 183 181 178 178 180 180 184 186 186 187 191 199 203 212 217 224 225 229 243 252 248
333 336 332 328 328 332 318 310 316 331 337 329 283 227 232 230 236 234 209 182 177 175 168 166 167 172 179 180 174 169 170 175 182 188 202 217 220 225 228 241 245 239 241 245
340 337 337 331 330 326 330 319 328 332 340 340 334 228 223 227 226 208 179 175 166 162 161 163 165 168 175 180 174 178 182 188 193 204 219 222 225 230 233 233 238 242 237 240
343 338 337 328 334 332 340 330 321 331 337 340 333 308 231 210 187 172 171 167 160 158 161 161 164 165 168 184 188 186 191 199 209 216 222 225 226 231 233 232 237 234 226 224
349 336 336 335 337 343 334 335 327 326 328 329 320 331 166 172 168 170 169 167 164 165 170 170 171 175 177 174 187 201 205 210 219 228 229 225 221 224 223 229 230 219 225 241